Weather History for KPHP - November, 2010

Change the Weather History Date:

Saturday, November 20, 2010

  Actual Average Record
Temperature  
Mean Temperature 18 °F 32 °F  
Max Temperature 23 °F 45 °F 72 °F (1962)
Min Temperature 13 °F 19 °F -10 °F (2011)
Degree Days  
Heating Degree Days 47 33  
Month to date heating degree days 500 570  
Since 1 July heating degree days 980 1273  
Cooling Degree Days 0 0  
Month to date cooling degree days 0 0  
Year to date cooling degree days 847 818  
Moisture  
Dew Point 11 °F    
Average Humidity 73    
Maximum Humidity 91    
Minimum Humidity 54    
Precipitation  
Precipitation 0.00 in 0.02 in 0.05 in (1953)
Month to date precipitation 0.02 0.48  
Year to date precipitation 15.03 16.78  
Sea Level Pressure  
Sea Level Pressure 30.05 in    
Wind  
Wind Speed 14 mph (ESE)    
Max Wind Speed 23 mph    
Max Gust Speed 29 mph    
Visibility 10 miles    
Events      
T = Trace of Precipitation, MM = Missing Value Source: NWS Daily Summary

Daily Weather History Graph

Daily Weather History Graph

Search for Another Location

Airport or City:

Trip Planner

Search our weather history database for the weather conditions in past years. The results will help you decide how hot, cold, wet, or windy it might be!

Date:

Astronomy

Nov. 20, 2010 Rise Set
Actual Time 6:48 AM MST 4:15 PM MST
Civil Twilight 6:16 AM MST 4:47 PM MST
Nautical Twilight 5:41 AM MST 5:22 PM MST
Astronomical Twilight 5:06 AM MST 5:56 PM MST
Moon 3:22 PM MST (11/20) 5:50 AM MST (11/20)
Length of Visible Light 10h 30m
Length of Day
9h 27m
Waxing Gibbous, 99% of the Moon is Illuminated
Nov 20
Waxing Gibbous
Nov 21
Full
Nov 28
Last Quarter
Dec 5
New
Dec 13
First Quarter

Hourly Weather History & Observations

Time (MST) Temp. Windchill Dew Point Humidity Pressure Visibility Wind Dir Wind Speed Gust Speed Precip Events Conditions
12:55 AM 16.0 °F 3.6 °F 8.1 °F 71% 30.23 in 10.0 mi East 10.4 mph - N/A   Clear
1:55 AM 16.0 °F 4.4 °F 8.1 °F 71% 30.23 in 10.0 mi East 9.2 mph - N/A   Clear
2:55 AM 15.1 °F 3.3 °F 8.1 °F 74% 30.23 in 10.0 mi East 9.2 mph - N/A   Scattered Clouds
3:55 AM 15.1 °F -0.1 °F 8.1 °F 74% 30.22 in 10.0 mi East 15.0 mph - N/A   Overcast
4:55 AM 15.1 °F 1.1 °F 8.1 °F 74% 30.22 in 10.0 mi East 12.7 mph - N/A   Overcast
5:55 AM 12.9 °F -1.6 °F 7.0 °F 77% 30.22 in 10.0 mi East 12.7 mph - N/A   Overcast
6:20 AM 14.0 °F -0.8 °F 6.8 °F 73% 30.11 in 10.0 mi East 13.8 mph - N/A   Mostly Cloudy
6:55 AM 15.1 °F 0.5 °F 7.0 °F 70% 30.20 in 10.0 mi East 13.8 mph - N/A   Overcast
7:55 AM 16.0 °F -0.9 °F 7.0 °F 68% 30.20 in 10.0 mi East 19.6 mph - N/A   Overcast
8:55 AM 17.1 °F 4.3 °F 8.1 °F 68% 30.22 in 10.0 mi ESE 11.5 mph 23.0 mph N/A   Overcast
9:55 AM 18.0 °F 2.6 °F 9.0 °F 68% 30.20 in 10.0 mi ESE 17.3 mph 21.9 mph N/A   Overcast
10:55 AM 19.0 °F 3.2 °F 9.0 °F 65% 30.14 in 10.0 mi ESE 19.6 mph 25.3 mph N/A   Overcast
11:55 AM 19.9 °F 4.8 °F 8.1 °F 60% 30.09 in 10.0 mi ESE 18.4 mph 25.3 mph N/A   Overcast
12:13 PM 21.2 °F 6.4 °F 8.6 °F 58% 29.98 in 10.0 mi SE 18.4 mph 27.6 mph N/A   Mostly Cloudy
12:55 PM 23.0 °F 8.7 °F 9.0 °F 55% 30.06 in 10.0 mi ESE 18.4 mph 23.0 mph N/A   Mostly Cloudy
1:06 PM 23.0 °F 10.1 °F 10.4 °F 59% 29.96 in 10.0 mi ESE 15.0 mph 21.9 mph N/A   Mostly Cloudy
1:55 PM 23.0 °F 10.6 °F 10.0 °F 58% 30.04 in 10.0 mi East 13.8 mph - N/A   Overcast
2:28 PM 23.0 °F 8.7 °F 8.6 °F 54% 29.93 in 10.0 mi East 18.4 mph - N/A   Overcast
2:44 PM 23.0 °F 9.6 °F 8.6 °F 54% 29.94 in 10.0 mi ESE 16.1 mph 21.9 mph N/A   Overcast
2:55 PM 23.0 °F 10.6 °F 9.0 °F 55% 30.02 in 10.0 mi East 13.8 mph - N/A   Overcast
3:55 PM 23.0 °F 9.6 °F 9.0 °F 55% 30.00 in 10.0 mi East 16.1 mph - N/A   Overcast
4:55 PM 21.9 °F 7.8 °F 10.0 °F 60% 29.97 in 10.0 mi ESE 17.3 mph 24.2 mph N/A   Overcast
5:55 PM 21.0 °F 6.2 °F 12.0 °F 68% 29.97 in 10.0 mi ESE 18.4 mph - N/A   Overcast
6:55 PM 21.0 °F 8.6 °F 12.0 °F 68% 29.95 in 10.0 mi ESE 12.7 mph - N/A   Overcast
7:50 PM 19.4 °F 4.5 °F 15.8 °F 86% 29.82 in 10.0 mi ESE 17.3 mph 26.5 mph N/A   Overcast
7:55 PM 19.9 °F 6.2 °F 16.0 °F 85% 29.92 in 10.0 mi ESE 15.0 mph 24.2 mph N/A   Overcast
8:39 PM 19.4 °F 6.0 °F 17.6 °F 93% 29.80 in 10.0 mi ESE 13.8 mph 19.6 mph N/A   Overcast
8:55 PM 19.9 °F 8.6 °F 17.1 °F 89% 29.91 in 10.0 mi ESE 10.4 mph - N/A   Overcast
9:55 PM 21.0 °F 11.4 °F 18.0 °F 88% 29.90 in 10.0 mi ESE 8.1 mph - N/A   Overcast
10:55 PM 21.0 °F 10.6 °F 18.0 °F 88% 29.90 in 10.0 mi ESE 9.2 mph - N/A   Overcast
11:55 PM 21.9 °F 14.5 °F 17.1 °F 82% 29.88 in 10.0 mi ENE 5.8 mph - N/A   Overcast